Location: Leo
(52.0556°N, 112.3605°W)
Time: 09:36:31
(UTC+00:00)

FO-29 - Pass Details

Date: 07 December 2023
Orbit: 799 x 1322 km, 98.6° (Epoch: 01 March)

Event Time Altitude Azimuth Distance (km) Brightness Sun altitude
Rises 09:05:37 0° 20° (NNE) 4,171 13.3 -54.3°
Reaches altitude 10° 09:08:48 10° 32° (NNE) 3,260 12.6 -54.0°
Enters shadow 09:10:48 17° 45° (NE) 2,782 12.2 -53.8°
